Waarnemingen

Advertentie
Mijn weer
Hoorn-A, Nederland (6212): temperatuur & dauwpunt: 22.05.2017 20:00:00 - 28.05.2017 20:00:00 (CEST)Hoorn-A, Nederland (6212): windsnelheid & windstoten: 22.05.2017 20:00:00 - 28.05.2017 20:00:00 (CEST)Hoorn-A, Nederland (6212): windrichting: 22.05.2017 20:00:00 - 28.05.2017 20:00:00 (CEST)Hoorn-A, Nederland (6212): luchtdruk: 22.05.2017 20:00:00 - 28.05.2017 20:00:00 (CEST)Hoorn-A, Nederland (6212): zicht: 22.05.2017 20:00:00 - 28.05.2017 20:00:00 (CEST)
Datum & Tijd tt [°C] td [°C] ff [km/u] ff [kn] fx [km/u] fx [kn] dd ppp [hPa] vv [km]
28.05.2017 20:00:00 14,7 12,4 9 5 11 6 WNW 1018,1 10
28.05.2017 19:00:00 14,2 12,7 13 7 11 6 W 1018,2 10
28.05.2017 18:00:00 14,7 12,7 15 8 14 8 - 1018,4 10
28.05.2017 17:00:00 14,3 12,5 11 6 18 10 W 1018,9 30
28.05.2017 16:00:00 14,0 12,3 18 10 22 12 W 1018,6 10
28.05.2017 15:00:00 13,9 12,4 22 12 29 16 - 1018,8 10
28.05.2017 14:00:00 13,7 12,3 26 14 25 14 - 1018,6 10
28.05.2017 13:00:00 13,7 12,3 31 17 29 16 - 1018,8 10
28.05.2017 12:00:00 13,6 12,4 29 16 29 16 - 1019,1 10
28.05.2017 11:00:00 13,7 12,3 26 14 25 14 - 1018,5 10
28.05.2017 10:00:00 13,8 12,2 26 14 25 14 - 1018,1 10
28.05.2017 09:00:00 14,0 12,2 31 17 29 16 - 1017,9 10
28.05.2017 08:00:00 14,1 12,3 28 15 25 14 - 1017,5 10
28.05.2017 07:00:00 14,4 12,3 29 16 32 18 - 1017,3 25
28.05.2017 06:00:00 14,3 12,4 31 17 32 18 - 1016,7 -
28.05.2017 05:00:00 14,1 12,3 37 20 36 19 - 1016,5 -
28.05.2017 04:00:00 14,9 12,1 44 24 43 23 - 1016,4 10
28.05.2017 03:00:00 15,1 12,3 44 24 43 23 - 1016,6 10
28.05.2017 02:00:00 15,1 12,4 41 22 40 21 - 1016,7 10
28.05.2017 01:00:00 15,5 12,6 42 23 47 25 - 1016,5 10
28.05.2017 00:00:00 16,3 12,7 50 27 50 27 - 1016,0 10
27.05.2017 23:00:00 16,7 12,9 52 28 47 25 - 1015,9 10
27.05.2017 22:00:00 16,5 13,0 50 27 50 27 - 1015,6 10
27.05.2017 21:00:00 16,1 13,3 44 24 43 23 - 1014,9 10
27.05.2017 20:00:00 16,7 14,1 50 27 50 27 - 1014,9 10
27.05.2017 19:00:00 17,4 13,7 50 27 47 25 - 1014,8 10
27.05.2017 18:00:00 20,6 13,6 39 21 43 23 - 1015,0 10
27.05.2017 17:00:00 23,9 12,8 22 12 22 12 - 1014,6 10
27.05.2017 16:00:00 21,6 13,8 29 16 32 18 Z 1014,8 -
27.05.2017 15:00:00 22,1 13,6 34 18 32 18 Z 1015,3 10
27.05.2017 14:00:00 22,4 13,4 35 19 32 18 Z 1015,7 10
27.05.2017 13:00:00 19,1 13,3 35 19 40 21 ZZO 1015,8 10
27.05.2017 12:00:00 20,8 13,3 46 25 40 21 - 1015,3 10
27.05.2017 11:00:00 18,7 13,3 48 26 43 23 ZO 1015,7 10
27.05.2017 10:00:00 18,0 13,4 46 25 43 23 ZO 1016,2 10
27.05.2017 09:00:00 17,8 13,2 48 26 43 23 - 1016,5 10
27.05.2017 08:00:00 17,0 13,4 44 24 43 23 - 1016,8 10
27.05.2017 07:00:00 16,8 13,4 46 25 40 21 - 1017,2 10
27.05.2017 06:00:00 16,8 13,4 44 24 40 21 - 1017,4 10
27.05.2017 05:00:00 16,7 13,3 46 25 47 25 - 1017,7 10
27.05.2017 04:00:00 17,2 13,4 55 30 50 27 - 1017,3 10
27.05.2017 03:00:00 17,1 13,7 48 26 43 23 OZO 1017,1 10
27.05.2017 02:00:00 17,0 13,8 46 25 43 23 - 1017,9 10
27.05.2017 01:00:00 17,0 14,0 48 26 47 25 - 1018,4 10
27.05.2017 00:00:00 16,8 14,2 54 29 50 27 - 1018,2 10
26.05.2017 23:00:00 17,4 13,9 55 30 50 27 - 1018,6 10
26.05.2017 22:00:00 17,5 13,8 54 29 47 25 - 1018,8 10
26.05.2017 21:00:00 17,5 13,7 57 31 50 27 - 1018,4 10
26.05.2017 20:00:00 17,4 14,2 48 26 47 25 - 1018,8 10
26.05.2017 19:00:00 16,2 14,5 35 19 36 19 - 1019,2 10
26.05.2017 18:00:00 16,0 14,0 34 18 36 19 - 1019,9 10
26.05.2017 17:00:00 16,5 13,9 37 20 36 19 - 1020,3 10
26.05.2017 16:00:00 17,1 13,8 41 22 36 19 - 1021,1 10
26.05.2017 15:00:00 15,9 13,6 39 21 36 19 - 1021,6 10
26.05.2017 14:00:00 15,9 13,7 31 17 32 18 - 1022,2 10
26.05.2017 13:00:00 14,6 13,6 18 10 22 12 - 1023,1 10
26.05.2017 12:00:00 14,8 13,6 15 8 14 8 - 1023,4 10
26.05.2017 11:00:00 14,3 13,1 15 8 14 8 - 1023,6 10
26.05.2017 10:00:00 14,9 12,9 15 8 18 10 - 1023,9 10
26.05.2017 09:00:00 15,0 12,6 21 11 25 14 - 1023,9 10
26.05.2017 08:00:00 14,7 12,5 26 14 25 14 - 1023,6 10
26.05.2017 07:00:00 15,3 12,7 29 16 29 16 - 1023,4 10
26.05.2017 06:00:00 14,6 12,7 24 13 22 12 - 1023,7 10
26.05.2017 05:00:00 14,2 12,2 24 13 25 14 - 1023,6 10
26.05.2017 04:00:00 14,4 11,6 28 15 29 16 - 1023,5 10
26.05.2017 03:00:00 14,6 11,2 31 17 29 16 - 1023,5 10
26.05.2017 02:00:00 14,4 10,7 31 17 29 16 - 1023,8 10
26.05.2017 01:00:00 14,1 11,3 34 18 29 16 - 1024,0 10
26.05.2017 00:00:00 13,9 11,8 31 17 29 16 - 1024,0 10
25.05.2017 23:00:00 14,1 12,6 26 14 22 12 - 1024,2 10
25.05.2017 22:00:00 14,9 10,4 22 12 22 12 - 1024,1 10
25.05.2017 21:00:00 14,7 10,7 15 8 14 8 - 1024,0 10
25.05.2017 20:00:00 14,4 11,5 13 7 14 8 - 1024,3 10
25.05.2017 19:00:00 14,4 10,9 13 7 11 6 - 1024,7 10
25.05.2017 18:00:00 14,1 11,5 9 5 11 6 - 1025,1 10
25.05.2017 17:00:00 14,2 11,3 9 5 7 4 - 1025,5 10
25.05.2017 16:00:00 14,1 10,8 8 4 7 4 - 1025,8 10
25.05.2017 15:00:00 13,9 11,1 4 2 7 4 - 1026,2 10
25.05.2017 14:00:00 13,6 10,3 8 4 7 4 - 1026,3 10
25.05.2017 13:00:00 12,9 10,6 4 2 7 4 - 1026,4 10
25.05.2017 12:00:00 12,8 11,0 5 3 7 4 N 1026,5 10
25.05.2017 11:00:00 12,6 11,1 8 4 7 4 NNW 1026,3 10
25.05.2017 10:00:00 12,7 11,2 9 5 7 4 NW 1026,1 10
25.05.2017 09:00:00 12,8 11,4 9 5 11 6 NW 1026,0 10
25.05.2017 08:00:00 12,6 11,4 9 5 11 6 NNW 1025,7 10
25.05.2017 07:00:00 12,4 11,5 11 6 11 6 NNW 1025,5 10
25.05.2017 06:00:00 12,2 11,6 9 5 11 6 NW 1025,3 10
25.05.2017 05:00:00 12,2 11,3 8 4 7 4 NNW 1025,1 10
25.05.2017 04:00:00 12,2 11,3 9 5 11 6 N 1025,2 10
25.05.2017 03:00:00 12,2 11,6 13 7 14 8 N 1025,4 10
25.05.2017 02:00:00 12,1 11,8 15 8 14 8 NNW 1025,6 10
25.05.2017 01:00:00 12,2 11,9 15 8 14 8 NNW 1025,6 10
25.05.2017 00:00:00 12,2 11,9 15 8 14 8 NNW 1025,4 10
24.05.2017 23:00:00 12,3 12,0 16 9 18 10 NNW 1025,4 10
24.05.2017 22:00:00 12,4 11,9 21 11 22 12 NNW 1025,5 10
24.05.2017 21:00:00 12,6 12,0 24 13 22 12 NNW 1025,2 10
24.05.2017 20:00:00 12,8 12,0 24 13 25 14 NW 1025,2 10
24.05.2017 19:00:00 12,8 12,0 26 14 25 14 NW 1025,0 10
24.05.2017 18:00:00 13,0 12,0 22 12 25 14 WNW 1025,0 10
24.05.2017 17:00:00 13,1 12,1 28 15 29 16 NW 1025,0 10
24.05.2017 16:00:00 13,1 12,0 31 17 32 18 NW 1024,9 10
24.05.2017 15:00:00 13,2 11,7 35 19 32 18 NW 1024,6 10
24.05.2017 14:00:00 12,8 11,4 29 16 29 16 WNW 1024,2 10
24.05.2017 13:00:00 12,6 11,0 28 15 29 16 WNW 1024,3 10
24.05.2017 12:00:00 12,7 11,3 22 12 22 12 WNW 1024,3 10
24.05.2017 11:00:00 12,6 11,4 18 10 22 12 W 1024,0 10
24.05.2017 10:00:00 12,7 12,1 15 8 14 8 W 1024,0 10
24.05.2017 09:00:00 12,9 11,7 8 4 11 6 - 1023,4 10
24.05.2017 08:00:00 13,0 11,9 4 2 7 4 Z 1023,0 10
24.05.2017 07:00:00 13,0 11,8 4 2 7 4 - 1022,7 10
24.05.2017 06:00:00 12,6 11,7 8 4 7 4 ZO 1022,4 10
24.05.2017 05:00:00 12,6 12,0 4 2 11 6 OZO 1022,4 10
24.05.2017 04:00:00 12,6 11,4 8 4 11 6 Z 1022,5 10
24.05.2017 03:00:00 12,5 11,4 11 6 14 8 ZZW 1022,7 10
24.05.2017 02:00:00 12,4 10,8 13 7 14 8 Z 1022,7 10
24.05.2017 01:00:00 12,5 10,3 11 6 11 6 Z 1023,0 10
24.05.2017 00:00:00 12,3 10,2 11 6 14 8 - 1023,2 10
23.05.2017 23:00:00 12,3 10,5 13 7 14 8 - 1023,2 10
23.05.2017 22:00:00 12,3 10,3 5 3 - - W 1023,0 10
23.05.2017 21:00:00 12,2 10,3 11 6 11 6 - 1022,4 10
23.05.2017 20:00:00 12,4 9,5 11 6 11 6 - 1022,3 10
23.05.2017 19:00:00 12,3 9,6 15 8 14 8 WNW 1022,0 10
23.05.2017 18:00:00 12,3 9,2 16 9 18 10 WNW 1021,8 10
23.05.2017 17:00:00 12,3 9,1 22 12 25 14 WNW 1021,4 10
23.05.2017 16:00:00 12,1 9,7 26 14 29 16 WNW 1021,2 10
23.05.2017 15:00:00 12,3 9,1 29 16 29 16 WNW 1020,7 10
23.05.2017 14:00:00 12,1 9,4 31 17 32 18 NW 1019,9 10
23.05.2017 13:00:00 12,3 9,8 31 17 36 19 NW 1019,1 10
23.05.2017 12:00:00 12,3 10,7 39 21 40 21 NW 1018,5 10
23.05.2017 11:00:00 12,4 10,9 41 22 40 21 NW 1017,4 10
23.05.2017 10:00:00 12,7 10,7 41 22 40 21 NW 1016,5 10
23.05.2017 09:00:00 12,9 10,9 41 22 40 21 NW 1015,6 10
23.05.2017 08:00:00 13,1 11,2 35 19 36 19 WNW 1014,8 10
23.05.2017 07:00:00 13,8 10,7 35 19 40 21 W 1014,4 10
23.05.2017 06:00:00 15,5 9,3 35 19 36 19 - 1014,1 10
23.05.2017 05:00:00 18,2 7,0 28 15 25 14 - 1013,9 10
23.05.2017 04:00:00 18,4 8,3 21 11 18 10 - 1013,8 10
23.05.2017 03:00:00 18,6 7,3 16 9 18 10 - 1014,2 10
23.05.2017 02:00:00 18,3 9,1 16 9 14 8 Z 1014,5 10
23.05.2017 01:00:00 18,4 10,5 15 8 18 10 ZZO 1014,7 10
23.05.2017 00:00:00 18,0 13,0 16 9 22 12 ZO 1014,9 10
22.05.2017 23:00:00 19,0 10,1 26 14 25 14 - 1014,9 10
22.05.2017 22:00:00 18,1 9,0 18 10 18 10 - 1015,2 10
22.05.2017 21:00:00 17,7 8,8 16 9 14 8 - 1015,5 10
22.05.2017 20:00:00 16,3 11,0 18 10 18 10 - 1015,7 10

tt = temperatuur
td = dauwpunt
ff = windsnelheid
fx = windstoten
dd = windrichting
ppp = luchtdruk
vv = zicht

Weerstations in de omgeving